Printer-friendly version

IAU Minor Planet Center

Minor Planet Center

(51) Nemausa

Orbital Elements

The following orbital elements are taken from MPC 31001:
   (51) Nemausa
Epoch 2005 Jan. 30.0 TT = JDT 2453400.5                 Goffin
M 127.35885              (2000.0)            P               Q
n   0.27089858     Peri.    2.53908     -0.99970382     -0.02142159
a   2.3655469      Node   176.17577     +0.01813863     -0.97224984
e   0.0666728      Incl.    9.97219     +0.01622563     -0.23296215
P   3.64           H    7.35          G   0.08           U   0
From 3595 observations at 87 oppositions, 1858-1997, mean residual 0".52.
An explanation of the orbital elements is available.

These orbital elements are also available in forms suitable for loading into a number of popular planetarium-type software programs.


Ephemeris

The following ephemeris is at intervals of five days. A daily ephemeris covering the same time interval is also available.

Personalized ephemerides for this object (and others) can be generated using the MPES.

Date    TT    R. A. (2000) Decl.     Delta      r     Elong.  Phase     V
 
2005 08 09    01 09.76   +06 58.0    1.887    2.523   117.7    20.8    11.9
2005 08 14    01 10.80   +06 45.1    1.832    2.523   122.3    19.8    11.8
2005 08 19    01 11.22   +06 27.5    1.780    2.523   127.2    18.6    11.7
2005 08 24    01 11.00   +06 04.9    1.731    2.523   132.2    17.3    11.5
2005 08 29    01 10.13   +05 37.4    1.686    2.523   137.3    15.7    11.4
2005 09 03    01 08.61   +05 05.1    1.645    2.523   142.7    14.0    11.3
2005 09 08    01 06.46   +04 28.2    1.609    2.522   148.3    12.1    11.2
2005 09 13    01 03.73   +03 47.2    1.579    2.522   154.0    10.1    11.1
2005 09 18    01 00.49   +03 02.9    1.554    2.521   159.8     7.9    10.9
2005 09 23    00 56.82   +02 16.1    1.536    2.521   165.6     5.7    10.8
2005 09 28    00 52.83   +01 27.7    1.525    2.520   171.3     3.5    10.6
2005 10 03    00 48.64   +00 38.8    1.521    2.519   175.5     1.8    10.5
2005 10 08    00 44.39   -00 09.2    1.523    2.518   173.5     2.6    10.6
2005 10 13    00 40.22   -00 55.2    1.533    2.518   168.2     4.7    10.7
2005 10 18    00 36.27   -01 38.0    1.549    2.517   162.3     6.9    10.9
2005 10 23    00 32.65   -02 16.9    1.572    2.516   156.4     9.1    11.0
2005 10 28    00 29.47   -02 50.9    1.601    2.514   150.6    11.2    11.1
2005 11 02    00 26.81   -03 19.7    1.636    2.513   144.8    13.1    11.3
2005 11 07    00 24.75   -03 42.7    1.676    2.512   139.3    14.9    11.4
2005 11 12    00 23.32   -03 59.9    1.721    2.511   133.8    16.5    11.5
2005 11 17    00 22.55   -04 11.4    1.771    2.509   128.6    17.9    11.6
2005 11 22    00 22.43   -04 17.3    1.823    2.508   123.5    19.2    11.7
2005 11 27    00 22.96   -04 17.8    1.879    2.506   118.6    20.2    11.8

Back to Bright Minor Planets

Astronomical Headlines Index

MPC


Valid HTML 4.01!